| time (UTC) | temp F | wind direction | speed knots | gust knots | rain 1hr in | rain 24hr in | rain mn in | humidity % | barometer mb |
| 20260903041012 | 78 | 86 | 0.0 | 0.0 | 0.00 | 1.13 | 0.00 | 93 | 1015.9 |
| 20260903040509 | 78 | 101 | 0.0 | 0.0 | 0.00 | 1.13 | 0.00 | 93 | 1015.9 |
| 20260903040030 | 78 | 104 | 0.0 | 0.0 | 0.00 | 1.13 | 0.00 | 93 | 1016.0 |
| 20260903035512 | 79 | 104 | 0.0 | 0.0 | 0.00 | 1.13 | 1.13 | 93 | 1016.0 |
| 20260903035017 | 79 | 98 | 0.0 | 0.0 | 0.00 | 1.13 | 1.13 | 93 | 1016.0 |
| 20260903034532 | 79 | 100 | 0.0 | 0.9 | 0.00 | 1.13 | 1.13 | 93 | 1015.9 |
| 20260903034015 | 79 | 86 | 0.0 | 1.7 | 0.00 | 1.13 | 1.13 | 94 | 1016.0 |
| 20260903033519 | 79 | 123 | 0.0 | 1.7 | 0.00 | 1.13 | 1.13 | 1015.8 | |
| 20260903033031 | 78 | 76 | 0.0 | 1.7 | 0.00 | 1.13 | 1.13 | 94 | 1015.9 |
| 20260903032503 | 78 | 69 | 0.0 | 0.9 | 0.00 | 1.13 | 1.13 | 94 | 1015.8 |
| 20260903032004 | 78 | 63 | 0.0 | 0.0 | 0.00 | 1.13 | 1.13 | 94 | 1015.9 |
| 20260903031520 | 78 | 84 | 0.0 | 0.0 | 0.00 | 1.13 | 1.13 | 94 | 1016.0 |
| 20260903031009 | 78 | 82 | 0.0 | 0.0 | 0.00 | 1.13 | 1.13 | 94 | 1015.9 |
| 20260903030508 | 78 | 38 | 0.0 | 0.0 | 0.00 | 1.13 | 1.13 | 94 | 1015.9 |
| 20260903030007 | 78 | 36 | 0.0 | 0.0 | 0.00 | 1.13 | 1.13 | 94 | 1016.0 |
| 20260903025505 | 78 | 5 | 0.0 | 0.0 | 0.00 | 1.13 | 1.13 | 94 | 1016.0 |
| 20260903025003 | 78 | 5 | 0.0 | 0.0 | 0.00 | 1.13 | 1.13 | 94 | 1016.2 |
| 20260903024509 | 78 | 5 | 0.0 | 0.0 | 0.00 | 1.13 | 1.13 | 93 | 1016.1 |
| 20260903024004 | 78 | 5 | 0.0 | 0.0 | 0.00 | 1.13 | 1.13 | 93 | 1016.1 |
| 20260903023504 | 78 | 5 | 0.0 | 0.0 | 0.00 | 1.13 | 1.13 | 93 | 1016.1 |
| 20260903023006 | 78 | 5 | 0.0 | 0.0 | 0.00 | 1.13 | 1.13 | 93 | 1016.0 |
| 20260903022504 | 78 | 5 | 0.0 | 0.0 | 0.00 | 1.13 | 1.13 | 93 | 1016.0 |
| 20260903022007 | 78 | 5 | 0.0 | 0.0 | 0.00 | 1.13 | 1.13 | 93 | 1016.1 |
| 20260903021508 | 78 | 5 | 0.0 | 0.0 | 0.00 | 1.13 | 1.13 | 93 | 1016.2 |
| 20260903021004 | 78 | 5 | 0.0 | 0.0 | 0.00 | 1.13 | 1.13 | 93 | 1016.2 |
| 20260903020505 | 78 | 5 | 0.0 | 0.0 | 0.00 | 1.13 | 1.13 | 93 | 1016.1 |
| 20260903020028 | 78 | 5 | 0.0 | 0.0 | 0.00 | 1.13 | 1.13 | 93 | 1016.1 |
| 20260903015504 | 78 | 5 | 0.0 | 0.0 | 0.00 | 1.13 | 1.13 | 93 | 1016.1 |
| 20260903015002 | 78 | 33 | 0.0 | 0.0 | 0.00 | 1.13 | 1.13 | 93 | 1016.0 |
| 20260903014506 | 78 | 33 | 0.0 | 0.0 | 0.00 | 1.13 | 1.13 | 93 | 1015.9 |
| 20260903014002 | 78 | 30 | 0.0 | 0.0 | 0.00 | 1.13 | 1.13 | 93 | 1015.8 |
| 20260903013503 | 78 | 30 | 0.0 | 0.9 | 0.00 | 1.13 | 1.13 | 93 | 1015.6 |
| 20260903013010 | 78 | 9 | 0.0 | 0.9 | 0.00 | 1.13 | 1.13 | 93 | 1015.5 |
| 20260903012503 | 78 | 19 | 0.0 | 0.0 | 0.00 | 1.13 | 1.13 | 93 | 1015.5 |
| 20260903012006 | 78 | 10 | 0.0 | 0.0 | 0.00 | 1.13 | 1.13 | 93 | 1015.5 |
| 20260903011514 | 78 | 32 | 0.0 | 0.0 | 0.00 | 1.13 | 1.13 | 93 | 1015.5 |
| 20260903011007 | 78 | 5 | 0.0 | 0.0 | 0.00 | 1.13 | 1.13 | 93 | 1015.4 |
| 20260903010508 | 78 | 28 | 0.0 | 0.0 | 0.00 | 1.13 | 1.13 | 93 | 1015.3 |
| 20260903010010 | 78 | 11 | 0.0 | 1.7 | 0.00 | 1.13 | 1.13 | 93 | 1015.4 |
| 20260903005509 | 78 | 352 | 0.0 | 1.7 | 0.00 | 1.13 | 1.13 | 92 | 1015.4 |
| 20260903005012 | 78 | 340 | 0.0 | 0.9 | 0.00 | 1.13 | 1.13 | 92 | 1015.3 |
| 20260903004513 | 78 | 350 | 0.0 | 1.7 | 0.00 | 1.13 | 1.13 | 92 | 1015.2 |
| 20260903004008 | 78 | 344 | 0.0 | 1.7 | 0.00 | 1.13 | 1.13 | 92 | 1015.1 |
| 20260903003505 | 78 | 9 | 0.0 | 1.7 | 0.00 | 1.13 | 1.13 | 92 | 1014.9 |
| 20260903003010 | 78 | 5 | 0.0 | 1.7 | 0.00 | 1.13 | 1.13 | 92 | 1014.9 |
| 20260903002503 | 78 | 306 | 0.0 | 2.6 | 0.00 | 1.13 | 1.13 | 92 | 1014.9 |
| 20260903002005 | 78 | 327 | 0.0 | 2.6 | 0.01 | 1.13 | 1.13 | 92 | 1014.9 |
| 20260903001520 | 78 | 343 | 0.0 | 2.6 | 0.01 | 1.13 | 1.13 | 92 | 1015.0 |
| 20260903001003 | 78 | 341 | 0.0 | 1.7 | 0.01 | 1.13 | 1.13 | 1015.2 | |
| 20260903000507 | 78 | 350 | 0.0 | 1.7 | 0.01 | 1.13 | 1.13 | 92 | 1015.2 |
| 20260903000021 | 78 | 35 | 0.0 | 0.0 | 0.01 | 1.13 | 1.13 | 92 | 1015.3 |
| 20260902235510 | 78 | 262 | 0.0 | 0.0 | 0.01 | 1.13 | 1.13 | 92 | 1015.3 |
| 20260902235002 | 78 | 260 | 0.0 | 0.0 | 0.01 | 1.13 | 1.13 | 92 | 1015.3 |
| 20260902234521 | 78 | 260 | 0.0 | 0.0 | 0.01 | 1.13 | 1.13 | 92 | 1015.1 |
| 20260902234011 | 78 | 260 | 0.0 | 0.9 | 0.01 | 1.13 | 1.13 | 92 | 1014.9 |
| 20260902233503 | 78 | 260 | 0.0 | 0.9 | 0.02 | 1.13 | 1.13 | 91 | 1014.9 |
| 20260902233012 | 78 | 259 | 0.0 | 0.9 | 0.03 | 1.13 | 1.13 | 92 | 1014.9 |
| 20260902232505 | 78 | 283 | 0.0 | 0.9 | 0.03 | 1.13 | 1.13 | 91 | 1015.0 |
| 20260902232004 | 78 | 265 | 0.0 | 0.9 | 0.02 | 1.12 | 1.12 | 91 | 1015.0 |
| 20260902231516 | 78 | 300 | 0.0 | 0.9 | 0.03 | 1.12 | 1.12 | 91 | 1015.1 |
| 20260902231005 | 78 | 239 | 0.0 | 0.9 | 0.04 | 1.12 | 1.12 | 91 | 1015.2 |
| 20260902230505 | 78 | 236 | 0.0 | 1.7 | 0.05 | 1.12 | 1.12 | 91 | 1015.1 |
| 20260902230013 | 78 | 238 | 0.0 | 2.6 | 0.06 | 1.12 | 1.12 | 91 | 1015.1 |
| 20260902225506 | 78 | 208 | 0.0 | 2.6 | 0.07 | 1.12 | 1.12 | 91 | 1015.0 |
| 20260902225012 | 78 | 188 | 0.0 | 0.9 | 0.08 | 1.12 | 1.12 | 91 | 1015.1 |
| 20260902224522 | 78 | 309 | 0.0 | 0.0 | 0.08 | 1.12 | 1.12 | 91 | 1015.0 |
| 20260902224003 | 78 | 311 | 0.0 | 0.0 | 0.08 | 1.12 | 1.12 | 90 | 1015.0 |
| 20260902223507 | 78 | 311 | 0.0 | 0.0 | 0.08 | 1.11 | 1.11 | 90 | 1015.0 |
| 20260902223030 | 78 | 311 | 0.0 | 0.0 | 0.07 | 1.10 | 1.10 | 90 | 1015.0 |
| 20260902222513 | 78 | 229 | 0.0 | 0.9 | 0.07 | 1.10 | 1.10 | 90 | 1015.1 |
| 20260902222004 | 78 | 229 | 0.0 | 1.7 | 0.09 | 1.10 | 1.10 | 90 | 1015.1 |
| 20260902221524 | 78 | 225 | 0.0 | 2.6 | 0.14 | 1.09 | 1.09 | 89 | 1015.1 |
| 20260902221003 | 78 | 217 | 0.0 | 2.6 | 0.26 | 1.08 | 1.08 | 90 | 1015.1 |
| 20260902220506 | 78 | 226 | 0.0 | 0.9 | 0.49 | 1.07 | 1.07 | 90 | 1014.8 |
| 20260902220015 | 78 | 313 | 0.0 | 0.0 | 0.83 | 1.05 | 1.05 | 89 | 1014.9 |
| 20260902215511 | 78 | 313 | 0.0 | 0.0 | 1.04 | 1.04 | 1.04 | 89 | 1014.7 |
| 20260902215011 | 77 | 319 | 0.0 | 0.9 | 1.04 | 1.04 | 1.04 | 89 | 1014.5 |
| 20260902214521 | 77 | 319 | 0.0 | 0.9 | 1.04 | 1.04 | 1.04 | 88 | 1014.4 |
| 20260902214008 | 77 | 281 | 0.0 | 2.6 | 1.04 | 1.04 | 1.04 | 88 | 1014.5 |
| 20260902213510 | 77 | 287 | 0.0 | 4.3 | 1.03 | 1.03 | 1.03 | 88 | 1014.8 |
| 20260902213010 | 77 | 324 | 0.0 | 4.3 | 1.03 | 1.03 | 1.03 | 88 | 1014.3 |
| 20260902212508 | 77 | 325 | 0.0 | 3.5 | 1.03 | 1.03 | 1.03 | 86 | 1014.3 |
| 20260902212010 | 77 | 319 | 0.0 | 7.0 | 1.01 | 1.01 | 1.01 | 86 | 1014.3 |
| 20260902211530 | 77 | 325 | 0.9 | 11.3 | 0.95 | 0.95 | 0.95 | 85 | 1014.3 |
| 20260902211006 | 78 | 318 | 3.5 | 12.2 | 0.82 | 0.82 | 0.82 | 84 | 1014.5 |
| 20260902210510 | 78 | 71 | 5.2 | 15.6 | 0.58 | 0.58 | 0.58 | 82 | 1014.8 |
| 20260902210012 | 80 | 10 | 7.8 | 19.1 | 0.23 | 0.23 | 0.23 | 79 | 1015.1 |
| 20260902205503 | 82 | 52 | 6.1 | 19.1 | 0.00 | 0.00 | 0.00 | 76 | 1014.6 |
| 20260902205004 | 86 | 350 | 12.2 | 19.1 | 0.00 | 0.00 | 0.00 | 72 | 1014.4 |
| 20260902204517 | 90 | 346 | 9.6 | 19.1 | 0.00 | 0.00 | 0.00 | 67 | 1014.2 |
| 20260902204010 | 93 | 34 | 6.1 | 14.8 | 0.00 | 0.00 | 0.00 | 63 | 1014.0 |
| 20260902203505 | 95 | 26 | 4.3 | 8.7 | 0.00 | 0.00 | 0.00 | 60 | 1013.8 |
| 20260902203020 | 95 | 20 | 2.6 | 7.0 | 0.00 | 0.00 | 0.00 | 61 | 1013.8 |
| 20260902202512 | 95 | 120 | 0.0 | 5.2 | 0.00 | 0.00 | 0.00 | 61 | 1013.8 |
| 20260902202011 | 94 | 13 | 1.7 | 6.1 | 0.00 | 0.00 | 0.00 | 61 | 1013.8 |
| 20260902201515 | 93 | 46 | 0.0 | 7.0 | 0.00 | 0.00 | 0.00 | 65 | 1013.9 |
| 20260902201016 | 92 | 78 | 2.6 | 7.0 | 0.00 | 0.00 | 0.00 | 66 | 1013.9 |
| 20260902200515 | 92 | 71 | 0.0 | 4.3 | 0.00 | 0.00 | 0.00 | 64 | 1013.9 |
| 20260902200018 | 92 | 76 | 0.0 | 2.6 | 0.00 | 0.00 | 0.00 | 63 | 1014.0 |
| 20260902195507 | 92 | 80 | 0.9 | 7.0 | 0.00 | 0.00 | 0.00 | 63 | 1014.1 |
| 20260902195011 | 93 | 5 | 1.7 | 9.6 | 0.00 | 0.00 | 0.00 | 62 | 1014.2 |
| 20260902194515 | 94 | 53 | 3.5 | 9.6 | 0.00 | 0.00 | 0.00 | 62 | 1014.3 |
| 20260902194008 | 94 | 5 | 0.9 | 4.3 | 0.00 | 0.00 | 0.00 | 62 | 1014.3 |
| 20260902193508 | 94 | 342 | 0.0 | 4.3 | 0.00 | 0.00 | 0.00 | 59 | 1014.3 |
| 20260902193023 | 95 | 348 | 1.7 | 5.2 | 0.00 | 0.00 | 0.00 | 58 | 1014.3 |
| 20260902192503 | 96 | 58 | 1.7 | 7.8 | 0.00 | 0.00 | 0.00 | 60 | 1014.4 |
| 20260902192007 | 96 | 49 | 0.0 | 7.8 | 0.00 | 0.00 | 0.00 | 61 | 1014.5 |
| 20260902191529 | 96 | 64 | 1.7 | 7.8 | 0.00 | 0.00 | 0.00 | 60 | 1014.7 |
| 20260902191011 | 96 | 65 | 0.9 | 7.8 | 0.00 | 0.00 | 0.00 | 60 | 1014.7 |
| 20260902190510 | 96 | 5 | 1.7 | 6.1 | 0.00 | 0.00 | 0.00 | 61 | 1014.8 |
| 20260902190027 | 96 | 5 | 0.9 | 7.0 | 0.00 | 0.00 | 0.00 | 64 | 1014.8 |
| 20260902185518 | 95 | 42 | 2.6 | 7.0 | 0.00 | 0.00 | 0.00 | 65 | 1014.9 |
| 20260902185004 | 94 | 64 | 1.7 | 7.0 | 0.00 | 0.00 | 0.00 | 63 | 1015.0 |
| 20260902184529 | 94 | 340 | 1.7 | 5.2 | 0.00 | 0.00 | 0.00 | 61 | 1015.2 |
| 20260902184015 | 95 | 5 | 1.7 | 5.2 | 0.00 | 0.00 | 0.00 | 63 | 1015.3 |
| 20260902183507 | 95 | 345 | 1.7 | 5.2 | 0.00 | 0.00 | 0.00 | 63 | 1015.3 |
| 20260902183019 | 95 | 360 | 0.9 | 9.6 | 0.00 | 0.00 | 0.00 | 64 | 1015.3 |
| 20260902182509 | 95 | 26 | 0.0 | 9.6 | 0.00 | 0.00 | 0.00 | 64 | 1015.6 |
| 20260902182010 | 95 | 344 | 0.9 | 8.7 | 0.00 | 0.00 | 0.00 | 65 | 1015.6 |
| 20260902181524 | 94 | 35 | 0.0 | 7.8 | 0.00 | 0.00 | 0.00 | 65 | 1015.6 |
| 20260902181009 | 94 | 61 | 2.6 | 7.8 | 0.00 | 0.00 | 0.00 | 65 | 1015.7 |
| 20260902180514 | 93 | 50 | 0.0 | 9.6 | 0.00 | 0.00 | 0.00 | 68 | 1015.8 |
| 20260902180027 | 92 | 84 | 3.5 | 9.6 | 0.00 | 0.00 | 0.00 | 68 | 1015.9 |
| 20260902175507 | 92 | 344 | 0.0 | 3.5 | 0.00 | 0.00 | 0.00 | 66 | 1015.9 |
| 20260902175010 | 92 | 53 | 0.0 | 5.2 | 0.00 | 0.00 | 0.00 | 69 | 1016.0 |
| 20260902174529 | 92 | 39 | 0.9 | 5.2 | 0.00 | 0.00 | 0.00 | 70 | 1016.1 |
| 20260902174016 | 92 | 26 | 0.0 | 5.2 | 0.00 | 0.00 | 0.00 | 70 | 1016.0 |
| 20260902173509 | 92 | 349 | 0.0 | 2.6 | 0.00 | 0.00 | 0.00 | 70 | 1016.0 |
| 20260902173034 | 91 | 144 | 0.0 | 4.3 | 0.00 | 0.00 | 0.00 | 73 | 1016.1 |
| 20260902172519 | 91 | 51 | 0.0 | 4.3 | 0.00 | 0.00 | 0.00 | 71 | 1016.2 |
| 20260902172009 | 90 | 17 | 0.0 | 7.0 | 0.00 | 0.00 | 0.00 | 73 | 1016.3 |
| 20260902171522 | 90 | 40 | 0.0 | 7.0 | 0.00 | 0.00 | 0.00 | 72 | 1016.4 |
| 20260902171007 | 91 | 317 | 0.0 | 5.2 | 0.00 | 0.00 | 0.00 | 72 | 1016.4 |
| 20260902170511 | 90 | 346 | 0.0 | 5.2 | 0.00 | 0.00 | 0.00 | 76 | 1016.4 |
| 20260902170022 | 89 | 44 | 0.0 | 4.3 | 0.00 | 0.00 | 0.00 | 74 | 1016.5 |
| 20260902165513 | 88 | 84 | 0.0 | 5.2 | 0.00 | 0.00 | 0.00 | 75 | 1016.7 |
| 20260902165011 | 88 | 295 | 0.0 | 7.0 | 0.00 | 0.00 | 0.00 | 74 | 1016.7 |
| 20260902164518 | 88 | 333 | 2.6 | 7.0 | 0.00 | 0.00 | 0.00 | 74 | 1016.8 |
| 20260902164010 | 89 | 311 | 0.0 | 4.3 | 0.00 | 0.00 | 0.00 | 75 | 1016.8 |
| 20260902163514 | 89 | 13 | 0.9 | 5.2 | 0.00 | 0.00 | 0.00 | 74 | 1016.9 |
| 20260902163031 | 89 | 340 | 0.0 | 7.8 | 0.00 | 0.00 | 0.00 | 74 | 1017.0 |
| 20260902162510 | 89 | 30 | 1.7 | 7.8 | 0.00 | 0.00 | 0.00 | 72 | 1017.0 |
| 20260902162014 | 89 | 18 | 0.0 | 7.8 | 0.00 | 0.00 | 0.00 | 77 | 1017.1 |
| 20260902161531 | 88 | 59 | 0.0 | 7.8 | 0.00 | 0.00 | 0.00 | 77 | 1017.1 |
| 20260902161013 | 88 | 31 | 1.7 | 7.8 | 0.00 | 0.00 | 0.00 | 77 | 1017.1 |
| 20260902160509 | 88 | 352 | 0.9 | 8.7 | 0.00 | 0.00 | 0.00 | 75 | 1017.1 |
| 20260902160025 | 88 | 20 | 2.6 | 7.8 | 0.00 | 0.00 | 0.00 | 75 | 1017.2 |
| 20260902155512 | 89 | 348 | 1.7 | 8.7 | 0.00 | 0.00 | 0.00 | 75 | 1017.3 |
| 20260902155008 | 89 | 352 | 3.5 | 8.7 | 0.00 | 0.00 | 0.00 | 74 | 1017.3 |
| 20260902154529 | 90 | 62 | 0.9 | 6.1 | 0.00 | 0.00 | 0.00 | 78 | 1017.4 |
| 20260902154014 | 90 | 31 | 1.7 | 8.7 | 0.00 | 0.00 | 0.00 | 78 | 1017.5 |
| 20260902153515 | 89 | 10 | 0.9 | 8.7 | 0.00 | 0.00 | 0.00 | 75 | 1017.5 |
| 20260902153028 | 90 | 5 | 3.5 | 9.6 | 0.00 | 0.00 | 0.00 | 74 | 1017.5 |
| 20260902152515 | 90 | 27 | 1.7 | 9.6 | 0.00 | 0.00 | 0.00 | 76 | 1017.6 |
| 20260902152021 | 90 | 68 | 1.7 | 7.8 | 0.00 | 0.00 | 0.00 | 75 | 1017.6 |
| 20260902151524 | 89 | 31 | 1.7 | 7.8 | 0.00 | 0.00 | 0.00 | 76 | 1017.5 |
| 20260902151015 | 89 | 19 | 0.0 | 5.2 | 0.00 | 0.00 | 0.00 | 78 | 1017.5 |
| 20260902150517 | 89 | 28 | 1.7 | 5.2 | 0.00 | 0.00 | 0.00 | 77 | 1017.5 |
| 20260902150035 | 89 | 51 | 0.0 | 4.3 | 0.00 | 0.00 | 0.00 | 80 | 1017.6 |
| 20260902145513 | 88 | 82 | 0.0 | 7.8 | 0.00 | 0.00 | 0.00 | 79 | 1017.5 |
| 20260902145012 | 88 | 65 | 0.9 | 7.8 | 0.00 | 0.00 | 0.00 | 80 | 1017.6 |
| 20260902144534 | 87 | 11 | 0.0 | 7.0 | 0.00 | 0.00 | 0.00 | 81 | 1017.5 |
| 20260902144011 | 87 | 342 | 1.7 | 7.0 | 0.00 | 0.00 | 0.00 | 80 | 1017.5 |
| 20260902143513 | 87 | 32 | 0.0 | 3.5 | 0.00 | 0.00 | 0.00 | 82 | 1017.4 |
| 20260902143032 | 86 | 28 | 0.0 | 9.6 | 0.00 | 0.00 | 0.00 | 82 | 1017.5 |
| 20260902142514 | 86 | 57 | 1.7 | 9.6 | 0.00 | 0.00 | 0.00 | 84 | 1017.3 |
| 20260902142014 | 85 | 18 | 0.0 | 5.2 | 0.00 | 0.00 | 0.00 | 86 | 1017.3 |
| 20260902141536 | 84 | 352 | 0.0 | 5.2 | 0.00 | 0.00 | 0.00 | 85 | 1017.3 |
| 20260902141016 | 84 | 19 | 0.0 | 0.9 | 0.00 | 0.00 | 0.00 | 86 | 1017.5 |
| 20260902140519 | 84 | 22 | 0.0 | 4.3 | 0.00 | 0.00 | 0.00 | 87 | 1017.5 |
| 20260902140036 | 83 | 73 | 0.0 | 4.3 | 0.00 | 0.00 | 0.00 | 88 | 1017.4 |
| 20260902135516 | 82 | 360 | 0.0 | 4.3 | 0.00 | 0.00 | 0.00 | 88 | 1017.4 |
| 20260902135018 | 82 | 352 | 0.0 | 4.3 | 0.00 | 0.00 | 0.00 | 89 | 1017.5 |
| 20260902134527 | 82 | 11 | 0.0 | 0.9 | 0.00 | 0.00 | 0.00 | 90 | 1017.6 |
| 20260902134012 | 81 | 75 | 0.0 | 0.9 | 0.00 | 0.00 | 0.00 | 90 | 1017.6 |
| 20260902133518 | 81 | 32 | 0.0 | 1.7 | 0.00 | 0.00 | 0.00 | 90 | 1017.5 |
| 20260902133029 | 81 | 48 | 0.0 | 1.7 | 0.00 | 0.00 | 0.00 | 90 | 1017.5 |
| 20260902132516 | 81 | 346 | 0.0 | 0.9 | 0.00 | 0.00 | 0.00 | 91 | 1017.6 |
| 20260902132016 | 80 | 49 | 0.0 | 0.9 | 0.00 | 0.00 | 0.00 | 92 | 1017.5 |
| 20260902131542 | 80 | 340 | 0.0 | 0.9 | 0.00 | 0.00 | 0.00 | 92 | 1017.5 |
| 20260902131010 | 80 | 5 | 0.0 | 0.9 | 0.00 | 0.00 | 0.00 | 92 | 1017.4 |
| 20260902130520 | 80 | 17 | 0.0 | 2.6 | 0.00 | 0.00 | 0.00 | 92 | 1017.4 |
| 20260902130032 | 80 | 346 | 0.0 | 2.6 | 0.00 | 0.00 | 0.00 | 92 | 1017.5 |
| 20260902125517 | 79 | 328 | 0.0 | 2.6 | 0.00 | 0.00 | 0.00 | 93 | 1017.4 |
| 20260902125014 | 79 | 5 | 0.0 | 0.9 | 0.00 | 0.00 | 0.00 | 93 | 1017.4 |
| 20260902124535 | 79 | 13 | 0.0 | 0.0 | 0.00 | 0.00 | 0.00 | 93 | 1017.4 |
| 20260902124018 | 79 | 332 | 0.0 | 0.0 | 0.00 | 0.00 | 0.00 | 93 | 1017.5 |
| 20260902123513 | 79 | 5 | 0.0 | 2.6 | 0.00 | 0.00 | 0.00 | 93 | 1017.5 |
| 20260902123027 | 79 | 28 | 0.0 | 2.6 | 0.00 | 0.00 | 0.00 | 93 | 1017.4 |
| 20260902122507 | 78 | 16 | 0.0 | 3.5 | 0.00 | 0.00 | 0.00 | 94 | 1017.4 |
| 20260902122011 | 78 | 13 | 0.0 | 3.5 | 0.00 | 0.00 | 0.00 | 94 | 1017.4 |
| 20260902121506 | 78 | 9 | 0.0 | 1.7 | 0.00 | 0.00 | 0.00 | 94 | 1017.4 |
| 20260902121003 | 78 | 340 | 0.0 | 0.9 | 0.00 | 0.00 | 0.00 | 94 | 1017.4 |
| 20260902120504 | 78 | 25 | 0.0 | 1.7 | 0.00 | 0.00 | 0.00 | 94 | 1017.3 |
| 20260902120012 | 77 | 349 | 0.0 | 1.7 | 0.00 | 0.00 | 0.00 | 94 | 1017.3 |
| 20260902115503 | 77 | 318 | 0.0 | 0.9 | 0.00 | 0.00 | 0.00 | 94 | 1017.2 |
| 20260902115006 | 77 | 323 | 0.0 | 0.0 | 0.00 | 0.00 | 0.00 | 94 | 1017.2 |
| 20260902114520 | 77 | 323 | 0.0 | 0.0 | 0.00 | 0.00 | 0.00 | 94 | 1017.2 |
| 20260902114011 | 77 | 315 | 0.0 | 0.0 | 0.00 | 0.00 | 0.00 | 94 | 1017.0 |
| 20260902113506 | 76 | 315 | 0.0 | 0.0 | 0.00 | 0.00 | 0.00 | 94 | 1017.0 |
| 20260902113023 | 76 | 315 | 0.0 | 0.0 | 0.00 | 0.00 | 0.00 | 94 | 1017.0 |
| 20260902112515 | 76 | 315 | 0.0 | 0.0 | 0.00 | 0.00 | 0.00 | 94 | 1017.0 |
| 20260902112004 | 76 | 315 | 0.0 | 0.0 | 0.00 | 0.00 | 0.00 | 94 | 1016.9 |
| 20260902111518 | 76 | 315 | 0.0 | 0.0 | 0.00 | 0.00 | 0.00 | 94 | 1016.8 |
| 20260902111010 | 76 | 315 | 0.0 | 0.0 | 0.00 | 0.00 | 0.00 | 94 | 1016.8 |
| 20260902110515 | 76 | 315 | 0.0 | 0.9 | 0.00 | 0.00 | 0.00 | 94 | 1016.6 |
| 20260902110011 | 76 | 323 | 0.0 | 0.9 | 0.00 | 0.00 | 0.00 | 94 | 1016.5 |
| 20260902105509 | 76 | 337 | 0.0 | 0.0 | 0.00 | 0.00 | 0.00 | 94 | 1016.5 |
| 20260902105006 | 76 | 346 | 0.0 | 0.9 | 0.00 | 0.00 | 0.00 | 94 | 1016.5 |
| 20260902104518 | 76 | 5 | 0.0 | 0.9 | 0.00 | 0.00 | 0.00 | 93 | 1016.3 |
| 20260902104008 | 76 | 338 | 0.0 | 0.9 | 0.00 | 0.00 | 0.00 | 93 | 1016.3 |
| 20260902103510 | 76 | 5 | 0.0 | 0.9 | 0.00 | 0.00 | 0.00 | 93 | 1016.4 |
| 20260902103027 | 76 | 336 | 0.0 | 0.9 | 0.00 | 0.00 | 0.00 | 93 | 1016.4 |
| 20260902102503 | 76 | 327 | 0.0 | 0.9 | 0.00 | 0.00 | 0.00 | 93 | 1016.5 |
| 20260902102007 | 76 | 348 | 0.0 | 0.9 | 0.00 | 0.00 | 0.00 | 93 | 1016.4 |
| 20260902101526 | 76 | 329 | 0.0 | 0.9 | 0.00 | 0.00 | 0.00 | 93 | 1016.2 |
| 20260902101014 | 76 | 298 | 0.0 | 1.7 | 0.00 | 0.00 | 0.00 | 93 | 1016.2 |
| 20260902100508 | 76 | 346 | 0.0 | 1.7 | 0.00 | 0.00 | 0.00 | 93 | 1016.2 |
| 20260902100025 | 76 | 350 | 0.0 | 0.9 | 0.00 | 0.00 | 0.00 | 93 | 1016.3 |
| 20260902095519 | 76 | 348 | 0.0 | 0.9 | 0.00 | 0.00 | 0.00 | 93 | 1016.3 |
| 20260902095005 | 76 | 350 | 0.0 | 0.9 | 0.00 | 0.00 | 0.00 | 93 | 1016.3 |
| 20260902094510 | 76 | 338 | 0.0 | 0.9 | 0.00 | 0.00 | 0.00 | 93 | 1016.3 |
| 20260902094012 | 76 | 342 | 0.0 | 0.9 | 0.00 | 0.00 | 0.00 | 93 | 1016.2 |
| 20260902093509 | 76 | 26 | 0.0 | 0.9 | 0.00 | 0.00 | 0.00 | 93 | 1016.2 |
| 20260902093015 | 76 | 347 | 0.0 | 1.7 | 0.00 | 0.00 | 0.00 | 93 | 1016.2 |
| 20260902092512 | 76 | 348 | 0.0 | 1.7 | 0.00 | 0.00 | 0.00 | 93 | 1016.3 |
| 20260902092008 | 76 | 324 | 0.0 | 0.0 | 0.00 | 0.00 | 0.00 | 93 | 1016.2 |
| 20260902091523 | 76 | 323 | 0.0 | 0.9 | 0.00 | 0.00 | 0.00 | 93 | 1016.1 |
| 20260902091007 | 76 | 338 | 0.0 | 0.9 | 0.00 | 0.00 | 0.00 | 93 | 1016.0 |
| 20260902090515 | 76 | 338 | 0.0 | 0.0 | 0.00 | 0.00 | 0.00 | 93 | 1016.0 |
| 20260902090030 | 76 | 324 | 0.0 | 0.0 | 0.00 | 0.00 | 0.00 | 93 | 1015.9 |
| 20260902085506 | 76 | 325 | 0.0 | 0.0 | 0.00 | 0.00 | 0.00 | 93 | 1016.0 |
| 20260902085012 | 76 | 325 | 0.0 | 0.0 | 0.00 | 0.00 | 0.00 | 93 | 1015.9 |
| 20260902084535 | 76 | 325 | 0.0 | 0.0 | 0.00 | 0.00 | 0.00 | 93 | 1015.9 |
| 20260902084018 | 76 | 325 | 0.0 | 0.0 | 0.00 | 0.00 | 0.00 | 92 | 1015.8 |
| 20260902083505 | 76 | 325 | 0.0 | 0.0 | 0.00 | 0.00 | 0.00 | 92 | 1015.9 |
| 20260902083021 | 76 | 325 | 0.0 | 0.0 | 0.00 | 0.00 | 0.00 | 92 | 1016.0 |
| 20260902082506 | 76 | 325 | 0.0 | 0.0 | 0.00 | 0.00 | 0.00 | 93 | 1016.0 |
| 20260902082004 | 76 | 325 | 0.0 | 0.0 | 0.00 | 0.00 | 0.00 | 92 | 1015.9 |
| 20260902081532 | 76 | 325 | 0.0 | 0.0 | 0.00 | 0.00 | 0.00 | 92 | 1015.8 |
| 20260902081010 | 76 | 325 | 0.0 | 0.9 | 0.00 | 0.00 | 0.00 | 93 | 1015.8 |
| 20260902080512 | 76 | 325 | 0.0 | 0.9 | 0.00 | 0.00 | 0.00 | 93 | 1015.8 |
| 20260902080021 | 76 | 325 | 0.0 | 0.0 | 0.00 | 0.00 | 0.00 | 93 | 1015.9 |
| 20260902075512 | 76 | 325 | 0.0 | 0.0 | 0.00 | 0.00 | 0.00 | 93 | 1015.9 |
| 20260902075016 | 76 | 323 | 0.0 | 0.0 | 0.00 | 0.00 | 0.00 | 93 | 1015.9 |
| 20260902074522 | 76 | 324 | 0.0 | 0.9 | 0.00 | 0.00 | 0.00 | 93 | 1016.0 |
| 20260902074012 | 76 | 324 | 0.0 | 0.9 | 0.00 | 0.00 | 0.00 | 93 | 1015.9 |
| 20260902073517 | 76 | 360 | 0.0 | 0.0 | 0.00 | 0.00 | 0.00 | 92 | 1016.0 |
| 20260902073032 | 76 | 360 | 0.0 | 0.0 | 0.00 | 0.00 | 0.00 | 92 | 1016.1 |
| 20260902072506 | 76 | 360 | 0.0 | 0.0 | 0.00 | 0.00 | 0.00 | 92 | 1016.0 |
| 20260902072006 | 76 | 360 | 0.0 | 0.0 | 0.00 | 0.00 | 0.00 | 92 | 1016.1 |
| 20260902071544 | 76 | 360 | 0.0 | 0.0 | 0.00 | 0.00 | 0.00 | 92 | 1016.2 |
| 20260902071012 | 77 | 360 | 0.0 | 0.0 | 0.00 | 0.00 | 0.00 | 92 | 1016.1 |
| 20260902070509 | 77 | 360 | 0.0 | 0.0 | 0.00 | 0.00 | 0.00 | 92 | 1016.2 |
| 20260902070028 | 77 | 360 | 0.0 | 0.0 | 0.00 | 0.00 | 0.00 | 92 | 1016.2 |
| 20260902065516 | 77 | 360 | 0.0 | 0.0 | 0.00 | 0.00 | 0.00 | 92 | 1016.2 |
| 20260902065008 | 77 | 360 | 0.0 | 0.0 | 0.00 | 0.00 | 0.00 | 92 | 1016.1 |
| 20260902064531 | 77 | 360 | 0.0 | 0.0 | 0.00 | 0.00 | 0.00 | 92 | 1016.1 |
| 20260902064018 | 77 | 211 | 0.0 | 0.0 | 0.00 | 0.00 | 0.00 | 92 | 1016.2 |
| 20260902063514 | 77 | 211 | 0.0 | 0.0 | 0.00 | 0.00 | 0.00 | 92 | 1016.2 |
| 20260902063031 | 77 | 211 | 0.0 | 0.0 | 0.00 | 0.00 | 0.00 | 92 | 1016.3 |
| 20260902062515 | 77 | 211 | 0.0 | 0.0 | 0.00 | 0.00 | 0.00 | 92 | 1016.4 |
| 20260902062017 | 76 | 211 | 0.0 | 0.0 | 0.00 | 0.00 | 0.00 | 92 | 1016.4 |
| 20260902061539 | 76 | 211 | 0.0 | 0.0 | 0.00 | 0.00 | 0.00 | 91 | 1016.4 |
| 20260902061008 | 77 | 211 | 0.0 | 0.0 | 0.00 | 0.00 | 0.00 | 91 | 1016.4 |
| 20260902060508 | 77 | 211 | 0.0 | 0.0 | 0.00 | 0.00 | 0.00 | 91 | 1016.5 |
| 20260902060031 | 77 | 211 | 0.0 | 0.0 | 0.00 | 0.00 | 0.00 | 91 | 1016.6 |
| 20260902055511 | 77 | 211 | 0.0 | 0.0 | 0.00 | 0.00 | 0.00 | 91 | 1016.6 |
| 20260902055011 | 77 | 211 | 0.0 | 0.0 | 0.00 | 0.00 | 0.00 | 92 | 1016.6 |
| 20260902054535 | 77 | 212 | 0.0 | 0.0 | 0.00 | 0.00 | 0.00 | 91 | 1016.5 |
| 20260902054010 | 77 | 212 | 0.0 | 0.0 | 0.00 | 0.00 | 0.00 | 91 | 1016.6 |
| 20260902053514 | 77 | 212 | 0.0 | 0.0 | 0.00 | 0.00 | 0.00 | 91 | 1016.7 |
| 20260902053011 | 77 | 212 | 0.0 | 0.0 | 0.00 | 0.00 | 0.00 | 91 | 1016.6 |
| 20260902052505 | 77 | 212 | 0.0 | 0.0 | 0.00 | 0.00 | 0.00 | 91 | 1016.7 |
| 20260902052003 | 77 | 212 | 0.0 | 0.0 | 0.00 | 0.00 | 0.00 | 90 | 1016.6 |
| 20260902051512 | 77 | 212 | 0.0 | 0.0 | 0.00 | 0.00 | 0.00 | 90 | 1016.7 |
| 20260902051004 | 77 | 212 | 0.0 | 0.0 | 0.00 | 0.00 | 0.00 | 90 | 1016.7 |
| 20260902050507 | 77 | 212 | 0.0 | 0.0 | 0.00 | 0.00 | 0.00 | 90 | 1016.8 |
| 20260902050030 | 77 | 212 | 0.0 | 0.0 | 0.00 | 0.00 | 0.00 | 90 | 1016.7 |
| 20260902045511 | 77 | 212 | 0.0 | 0.0 | 0.00 | 0.00 | 0.00 | 90 | 1016.7 |
| 20260902045007 | 77 | 212 | 0.0 | 0.0 | 0.00 | 0.00 | 0.00 | 90 | 1016.7 |
| 20260902044531 | 77 | 212 | 0.0 | 0.0 | 0.00 | 0.00 | 0.00 | 90 | 1016.8 |
| 20260902044012 | 78 | 212 | 0.0 | 0.0 | 0.00 | 0.00 | 0.00 | 90 | 1016.7 |
| 20260902043504 | 78 | 212 | 0.0 | 0.0 | 0.00 | 0.00 | 0.00 | 90 | 1016.7 |
| 20260902043022 | 78 | 212 | 0.0 | 0.0 | 0.00 | 0.00 | 0.00 | 90 | 1016.7 |
| 20260902042513 | 78 | 212 | 0.0 | 0.0 | 0.00 | 0.00 | 0.00 | 1016.9 | |
| 20260902042020 | 78 | 212 | 0.0 | 0.0 | 0.00 | 0.00 | 0.00 | 1017.0 | |
| 20260902041514 | 78 | 212 | 0.0 | 0.0 | 0.00 | 0.00 | 0.00 | 90 | 1017.0 |